Regional Weather Roundup
Issued by NWS Bismarck, ND

Home | Current Version | Previous Version | Text Only | Print | Product List | Glossary On
Versions: 1 2 3 4 5 6 7 8 9 10 11 12 13 14 15 16 17 18 19 20 21 22 23 24 25 26 27 28 29 30 31 32 33 34 35 36 37 38 39 40 41 42 43 44 45 46 47 48 49 50
000
ASUS43 KBIS 161210
RWRBIS

NWR BROADCAST TEXT
NATIONAL WEATHER SERVICE BISMARCK ND
600 AM CST MON JAN 16 2017

NOTE: "FAIR" INDICATES FEW OR NO CLOUDS BELOW 12,000 FEET WITH NO
SIGNIFICANT WEATHER AND/OR OBSTRUCTIONS TO VISIBILITY.


CITY           SKY/WX    TMP DP  RH WIND       PRES   REMARKS
WILLISTON      FAIR       7   3  84 SW5       30.07S WCI  -2
MINOT          FAIR      15   7  70 W9        30.01R WCI   3
MINOT AFB      NOT AVBL
BISMARCK       FAIR      -3  -8  79 S3        30.07S
DICKINSON      FAIR      14   6  70 W15       30.01R WCI  -1
GARRISON         N/A     13   5  70 W13       30.03R WCI  -2
HETTINGER ARPT FAIR      12   4  70 NW17      30.06R WCI  -5
JAMESTOWN      FAIR      11   4  73 W12       30.02F WCI  -3
CARRINGTON     FAIR      14   7  73 W12G17    30.03S WCI   0
HAZEN            N/A    N/A N/A N/A SW7       30.07S
RUGBY            N/A      3   0  85 SW12      30.00R WCI -13
STANLEY        FAIR      10   9  92 NW13      30.02F WCI  -5
TIOGA          FAIR       9   7  92 SW7       30.04R WCI  -3
WATFORD CITY   FAIR       9   5  85 W10       30.07S WCI  -6
$$

CITY           SKY/WX    TMP DP  RH WIND       PRES   REMARKS
GRAND FORKS    FAIR       6   0  76 S9        30.03S WCI  -8
GRAND FORKS AF CLEAR     10   2  71 SW9       30.03R WCI  -3
DEVILS LAKE    FAIR       8   4  83 W13       30.00R WCI  -8
FARGO          FAIR      10   7  87 S9        30.07S WCI  -3
CAVALIER         N/A     10   5  79 CALM      30.00R
GRAFTON        FAIR       7   1  78 S9        30.04R WCI  -7
GWINNER        FAIR      12   9  85 SW13      30.08S WCI  -3
ROLLA            N/A    N/A N/A N/A MISG        N/A
$$

CITY           SKY/WX    TMP DP  RH WIND       PRES   REMARKS
ABERDEEN       FAIR      -1  -6  79 S7        30.10S WCI -14
MOBRIDGE       FAIR       0  -5  79 CALM      30.05R
BUFFALO          N/A     13   3  64 W8        30.00R WCI   2
RAPID CITY     MOCLDY    23  12  62 NW9       30.05S WCI  13
GLASGOW        FAIR       4   0  83 NW10      30.10R WCI -11
SIDNEY         FAIR       3  -1  83 SW5       30.10S WCI  -6
WOLF POINT     FAIR       4  -2  76 SW7       30.11S WCI  -8
GLENDIVE       FAIR       6   1  80 VRB3      30.08R
MILES CITY     FAIR       5  -1  76 W14       30.12S WCI -12
BAKER          FAIR      14   5  67 W17       30.07S WCI  -3
$$

CITY           SKY/WX    TMP DP  RH WIND       PRES   REMARKS
BILLINGS       FAIR      14   3  61 SW18      30.13S WCI  -3
GREAT FALLS    FAIR      22   9  57 SW17      30.10F WCI   8
REGINA         CLEAR     16  14  93 VRB5      30.02R WCI   9
ESTEVAN        PTCLDY     7   3  85 W8        30.03R WCI  -6
$$





USA.gov is the U.S. government's official web portal to all federal, state and local government web resources and services.